Location: *
(32.8667°N, 13.1833°E)
Time: 20:05:39
(UTC+00:00)

Lacrosse 5 - Pass Details

Date: 18 July 2019
Orbit: 717 x 722 km, 57.0° (Epoch: 01 August)

Event Time Altitude Azimuth Distance (km) Brightness Sun altitude
Rises 22:49:28 0° 336° (NNW) 3,123 6.1 -35.9°
Reaches altitude 10° 22:52:48 10° 358° (N) 2,200 5.1 -36.0°
Maximum altitude 22:55:50 16° 35° (NE) 1,839 4.4 -36.0°
Enters shadow 22:56:25 15° 43° (NE) 1,853 4.3 -36.0°
